Regional Weather Roundup
Issued by NWS Kansas City/Pleasant Hill, MO

Home | Current Version | Previous Version | Graphics & Text | Print | Product List | Glossary Off
Versions: 1 2 3 4 5 6 7 8 9 10 11 12 13 14 15 16 17 18 19 20 21 22 23 24 25 26 27

000
ASUS43 KEAX 220310
RWREAX

WEATHER ROUNDUP FOR EASTERN KANSAS AND NORTHWEST MISSOURI
NATIONAL WEATHER SERVICE KANSAS CITY/PLEASANT HILL MO
1000 PM CDT SUN MAY 21 2017

KSZ040-057-103>105-MOZ028-029-037-043-220400-
...KANSAS CITY METROPOLITAN AREA...

CITY           SKY/WX    TMP DP  RH WIND       PRES   REMARKS
K.C. INTL      CLEAR     61  40  45 CALM      30.13S
K.C. DOWNTOWN  CLEAR     61  49  64 CALM      30.12S
LEES SUMMIT    CLEAR     62  42  47 CALM      30.13S
OLATHE - IXD   CLEAR     58  46  64 CALM      30.13S
OLATHE - OJC   CLEAR     58  47  66 CALM      30.13S
LAWRENCE       CLEAR     55  52  89 CALM      30.12S

$$

MOZ001>008-011>017-020>025-030>033-038>040-044>046-053-054-220400-
...NORTHERN AND CENTRAL MISSOURI...

CITY           SKY/WX    TMP DP  RH WIND       PRES   REMARKS
ST. JOSEPH     CLEAR     56  48  74 CALM      30.12S
MOSBY          CLEAR     54  46  76 CALM      30.13R
WARRENSBURG    CLEAR     57  46  67 CALM      30.13R
WHITEMAN AFB   CLEAR     55  53  93 S3        30.13R
CLINTON        CLEAR     55  50  82 CALM      30.15R
SEDALIA        CLEAR     62  47  57 CALM      30.15R
WARSAW         NOT AVBL
CHILLICOTHE      N/A     53  48  83 CALM      30.14R
KIRKSVILLE     CLEAR     48  46  93 W3        30.13R

$$

MOZ041-047>049-056>058-063>065-088>090-097-220400-
...EASTERN AND SOUTHERN MISSOURI...

CITY           SKY/WX    TMP DP  RH WIND       PRES   REMARKS
ST. LOUIS INTL PTCLDY    63  46  54 W3        30.14R
SPIRIT OF STL  CLEAR     56  52  86 CALM      30.13R
COLUMBIA       CLEAR     57  48  72 CALM      30.14R
JEFFERSON CITY CLEAR     59  49  69 CALM      30.14R
ROLLA          CLEAR     54  46  74 CALM      30.14R
OSAGE BEACH    CLEAR     53  49  86 CALM      30.15R
SPRINGFIELD    PTCLDY    57  51  80 CALM      30.15S
BRANSON        CLOUDY    57  52  82 CALM      30.16S
JOPLIN         CLOUDY    60  54  80 CALM      30.14F
WEST PLAINS    CLOUDY    57  48  72 CALM      30.16R

$$

IAZ060-094-KSZ022-034>040-054-083-096-NEZ052-066-093-220400-
...KANSAS...SOUTHEAST NEBRASKA AND IOWA...

CITY           SKY/WX    TMP DP  RH WIND       PRES   REMARKS
TOPEKA         CLEAR     59  56  89 CALM      30.11S
MANHATTAN      CLOUDY    60  54  80 CALM      30.11R
EMPORIA        CLEAR     60  51  72 SE5       30.12R
CHANUTE        CLOUDY    60  52  74 SE5       30.13R
WICHITA        MOCLDY    59  52  77 SE5       30.11S
OMAHA          CLEAR     55  45  68 SE3       30.08S
LINCOLN        CLEAR     57  43  59 SE3       30.10R
FALLS CITY     CLEAR     59  43  55 S6        30.10R
LAMONI         CLEAR     55  46  71 NW5       30.12R
DES MOINES     CLEAR     52  44  74 SW8       30.09R

$$





USA.gov is the U.S. government's official web portal to all federal, state and local government web resources and services.